Location: ??????????
(41.2581°N, 22.8006°E)
Time: 14:48:49
(UTC+00:00)

USA 59 Rocket - Visible Passes

Search period start: 16 March 2026 00:00
Search period end: 26 March 2026 00:00
Orbit: 368 x 1670 km, 63.3° (Epoch: 16 March)

Date Brightness Start Highest point End Pass type
(mag) Time Alt. Az. Time Alt. Az. Time Alt. Az.
16 Mar 2.5 02:25:58 10° N 02:28:19 17° NE 02:31:04 10° E visible
17 Mar 0.8 03:03:45 10° NNW 03:07:14 49° NE 03:11:53 10° SE visible
17 Mar 1.5 18:32:03 10° SSW 18:33:40 21° SSW 18:33:40 21° SSW visible
18 Mar 2.5 01:55:37 12° NNE 01:57:24 16° NE 02:00:03 10° E visible
18 Mar 0.2 03:42:24 10° NW 03:46:03 48° WSW 03:50:59 10° SSE visible
18 Mar 1.3 17:23:56 10° SSE 17:26:18 15° ESE 17:27:09 14° ESE visible
18 Mar 2.0 19:11:22 10° WSW 19:12:48 19° WSW 19:12:48 19° WSW visible
19 Mar 0.8 02:33:53 19° NNW 02:36:17 48° NE 02:40:54 10° SE visible
19 Mar -0.5 18:01:05 10° SSW 18:05:05 55° ESE 18:06:11 35° ENE visible
20 Mar 2.6 01:26:42 15° NE 01:26:42 15° NE 01:28:58 10° E visible
20 Mar 0.1 03:12:18 17° NW 03:15:05 50° WSW 03:20:01 10° SSE visible
20 Mar 1.0 18:40:20 10° WSW 18:43:49 34° NW 18:45:07 24° N visible
21 Mar 0.8 02:05:17 46° NE 02:05:17 46° NE 02:09:52 10° SE visible
21 Mar 1.7 03:51:12 10° WNW 03:53:55 17° WSW 03:57:07 10° SSW visible
21 Mar -0.4 17:30:05 10° SSW 17:34:04 52° ESE 17:37:12 10° NE visible
21 Mar 2.7 19:21:57 10° WNW 19:22:46 11° NW 19:23:33 10° NNW visible
22 Mar 0.0 02:44:04 52° SW 02:44:04 52° SW 02:49:00 10° SSE visible
22 Mar 1.0 18:09:14 10° WSW 18:12:46 36° NW 18:15:41 10° NNE visible
23 Mar 2.4 01:37:24 17° ESE 01:37:24 17° ESE 01:38:46 10° SE visible
23 Mar 1.6 03:23:03 17° WSW 03:23:03 17° WSW 03:26:10 10° SSW visible
23 Mar 2.6 18:50:38 10° WNW 18:51:40 11° NW 18:52:40 10° NNW visible
24 Mar 2.2 02:16:31 17° SSE 02:16:31 17° SSE 02:17:56 10° SSE visible
24 Mar 1.0 17:38:05 10° WSW 17:41:40 37° NW 17:44:36 10° NNE visible
25 Mar 2.5 18:19:18 10° WNW 18:20:32 12° NW 18:21:42 10° NNW visible
